time_stamp(utc),avg(mph),gust(mph),direction(deg),12m_air_temp(f),sonic_u(cm/s),sonic_v(cm/s),sonic_w(cm/s),pressure,2m_air_temp(f),pyranometer(W/m^2)
"2019-04-22 00:01:24+00",9.4,11.4,,56,-179,-361,-3,1016.98,55.7,0
"2019-04-22 00:06:24+00",7.2,8.2,,56,-142,-307,-30,1016.99,55.7,0
"2019-04-22 00:11:24+00",9.6,10.6,,56.1,-146,-396,-72,1017.35,55.7,0
"2019-04-22 00:16:24+00",7.9,8.9,,56.1,-118,-320,-64,1017.21,55.7,0
"2019-04-22 00:21:24+00",5.6,7.6,,56,-92,-230,-63,1017.17,55.7,0
"2019-04-22 00:26:24+00",4.9,5.9,,56.1,-139,-199,-52,1017.05,55.7,0
"2019-04-22 00:31:24+00",3.3,4.3,,56.2,-72,-129,-37,1016.73,55.8,0
"2019-04-22 00:36:24+00",5.6,6.6,,56.2,-113,-204,-62,1017.03,55.8,0
"2019-04-22 00:41:24+00",5.0,6.0,,56.2,-121,-211,-60,1017.1,55.7,0
"2019-04-22 00:46:24+00",4.4,5.4,,56.2,-76,-193,-45,1016.92,55.6,0
"2019-04-22 00:51:24+00",4.9,5.9,,56.2,-103,-259,-73,1017.12,55.6,0
"2019-04-22 00:56:24+00",4.9,5.9,,56.1,-29,-209,-51,1017.11,55.6,0
"2019-04-22 01:01:24+00",5.3,6.3,,56.1,-38,-220,-42,1017.14,55.6,0
"2019-04-22 01:06:24+00",4.7,5.7,,56,-40,-197,-40,1017.05,55.4,0
"2019-04-22 01:11:24+00",4.7,4.7,,56,-46,-199,-53,1016.99,55.4,0
"2019-04-22 01:16:24+00",5.7,5.7,,56.1,-50,-241,-62,1017.15,55.3,0
"2019-04-22 01:21:24+00",4.9,5.9,,56.2,-113,-225,-51,1017.22,55.3,0
"2019-04-22 01:26:24+00",4.1,5.1,,56.3,-99,-190,-56,1017.33,55.3,0
"2019-04-22 01:31:24+00",4.0,5.0,,56.3,-104,-143,-48,1017.3,55.3,0
"2019-04-22 01:36:24+00",4.2,5.2,,56.3,-97,-97,-40,1017.29,55.4,0
"2019-04-22 01:41:24+00",3.1,3.1,,56.3,-100,-48,-29,1017.17,55.4,0
"2019-04-22 01:46:24+00",2.3,3.3,,56.3,-89,-36,-13,1016.94,55.3,0
"2019-04-22 01:51:24+00",0.7,1.7,,56.3,-69,-29,-11,1017,55.3,0
"2019-04-22 01:56:24+00",2.9,2.9,,56.4,-116,-15,-16,1017.07,55.3,0
"2019-04-22 02:01:24+00",3.3,4.3,,56.5,-132,-50,-19,1017.07,55.4,0
"2019-04-22 02:06:24+00",4.2,5.2,,56.5,-181,-106,-41,1017.08,55.4,0
"2019-04-22 02:11:24+00",3.2,4.2,,56.6,-130,-37,-19,1017.02,55.4,0
"2019-04-22 02:16:24+00",3.7,4.7,,56.5,-149,-21,-24,1017.14,55.4,0
"2019-04-22 02:21:24+00",4.1,5.1,,56.6,-174,-70,-26,1017.2,55.4,0
"2019-04-22 02:26:24+00",4.4,4.4,,56.6,-175,-57,-27,1017.21,55.4,0
"2019-04-22 02:31:24+00",5.1,6.1,,56.6,-185,-94,-47,1017.27,55.4,0
"2019-04-22 02:36:24+00",5.7,5.7,,56.7,-206,-89,-47,1017.28,55.4,0
"2019-04-22 02:41:24+00",5.1,6.1,,56.7,-196,-90,-38,1017.29,55.3,0
"2019-04-22 02:46:24+00",5.0,6.0,,56.5,-191,-45,-32,1017.36,55.3,0
"2019-04-22 02:51:24+00",4.3,4.3,,56.5,-167,-19,-24,1017.41,55.3,0
"2019-04-22 02:56:24+00",3.9,4.9,,56.5,-153,-71,-26,1017.48,55.1,0
"2019-04-22 03:01:24+00",4.1,4.1,,56.4,-165,-29,-22,1017.34,55.1,0
"2019-04-22 03:06:24+00",3.5,3.5,,56.4,-138,9,-24,1017.27,55.1,0
"2019-04-22 03:11:24+00",2.6,2.6,,56.4,-101,23,-15,1017.26,55,0
"2019-04-22 03:16:24+00",3.7,4.7,,56.4,-141,15,-26,1017.13,55,0
"2019-04-22 03:21:24+00",4.4,4.4,,56.4,-160,56,-28,1017.23,55.1,0
"2019-04-22 03:26:24+00",5.0,6.0,,56.3,-169,96,-27,1017.22,55.2,0
"2019-04-22 03:31:24+00",4.6,5.6,,56.4,-157,105,-17,1017.17,55.3,0
"2019-04-22 03:36:24+00",3.3,4.3,,56.5,-128,36,-12,1017.28,55.4,0
"2019-04-22 03:41:24+00",3.4,4.4,,56.6,-124,-88,-27,1017.53,55.6,0
"2019-04-22 03:46:24+00",4.8,4.8,,56.5,-157,100,-32,1017.58,55.6,0
"2019-04-22 03:51:24+00",4.3,4.3,,56.3,-151,80,-19,1017.5,55.6,0
"2019-04-22 03:56:24+00",2.3,3.3,,56.4,-43,73,-10,1017.47,55.6,0
"2019-04-22 04:01:24+00",2.2,2.2,,56.3,-19,85,-14,1017.36,55.4,0
"2019-04-22 04:06:24+00",2.7,2.7,,56.3,16,103,-17,1017.4,55.3,0
"2019-04-22 04:11:24+00",5.1,6.1,,56.3,86,30,-9,1017.4,55.2,0
"2019-04-22 04:16:24+00",6.6,7.6,,55,25,-21,-25,1017.31,54.8,0
"2019-04-22 04:21:24+00",8.5,9.5,,54.4,27,-39,-25,1017.3,54.5,0
"2019-04-22 04:26:24+00",7.8,8.8,,54,296,-65,-67,1017.35,54.1,0
"2019-04-22 04:31:24+00",5.8,6.8,,53.8,168,-118,-47,1017.33,53.9,0
"2019-04-22 04:36:24+00",5.3,6.3,,53.8,157,-113,-42,1017.42,53.7,0
"2019-04-22 04:41:24+00",4.3,4.3,,53.7,135,-70,-37,1017.25,53.6,0
"2019-04-22 04:46:24+00",4.7,4.7,,53.7,177,-3,-31,1017.17,53.4,0
"2019-04-22 04:51:24+00",4.6,5.6,,53.7,170,58,-27,1017.18,53.2,0
"2019-04-22 04:56:24+00",4.3,4.3,,53.6,161,31,-25,1017.22,53,0
"2019-04-22 05:01:24+00",4.7,4.7,,53.5,173,-34,-35,1017.2,52.9,0
"2019-04-22 05:06:24+00",5.7,5.7,,53.4,205,-62,-44,1017.17,52.7,0
"2019-04-22 05:11:24+00",3.4,4.4,,53.3,130,-9,-22,1017.05,52.6,0
"2019-04-22 05:16:24+00",2.9,2.9,,53.3,109,-6,-21,1016.92,52.4,0
"2019-04-22 05:21:24+00",3.1,3.1,,53.3,109,26,-19,1016.8,52.3,0
"2019-04-22 05:26:24+00",3.3,4.3,,53.3,102,82,-17,1016.83,52.1,0
"2019-04-22 05:31:24+00",4.4,4.4,,53.2,156,100,-15,1016.78,51.9,0
"2019-04-22 05:36:24+00",4.4,4.4,,53.1,173,78,-19,1016.76,51.7,0
"2019-04-22 05:41:24+00",3.6,3.6,,53.1,126,74,-15,1016.49,51.6,0
"2019-04-22 05:46:24+00",2.8,3.8,,53.1,94,53,-20,1016.49,51.4,0
"2019-04-22 05:51:24+00",3.4,3.4,,53,82,102,-24,1016.42,51.3,0
"2019-04-22 05:56:24+00",3.9,3.9,,52.9,74,143,-21,1016.29,51.4,0
"2019-04-22 06:01:24+00",4.5,4.5,,52.9,89,168,-28,1016.24,51.3,0
"2019-04-22 06:06:24+00",3.1,3.1,,52.9,66,94,-18,1016.31,51.3,0
"2019-04-22 06:11:24+00",3.6,3.6,,52.9,133,39,-19,1016.38,51.2,0
"2019-04-22 06:16:24+00",3.3,4.3,,52.9,115,62,-26,1016.21,51.2,0
"2019-04-22 06:21:24+00",4.7,4.7,,53,155,118,-26,1016.1,51,0
"2019-04-22 06:26:24+00",5.6,6.6,,53,166,167,-32,1016.02,50.9,0
"2019-04-22 06:31:24+00",5.1,5.1,,53.1,102,191,-32,1016.01,50.9,0
"2019-04-22 06:36:24+00",4.8,4.8,,53.3,22,203,-44,1015.91,50.9,0
"2019-04-22 06:41:24+00",4.8,4.8,,53.4,66,187,-33,1015.88,51,0
"2019-04-22 06:46:24+00",4.6,4.6,,53.4,92,151,-34,1016.01,51.1,0
"2019-04-22 06:51:24+00",5.0,5.0,,53.5,64,199,-33,1016.01,51.3,0
"2019-04-22 06:56:24+00",5.3,5.3,,53.6,84,203,-36,1015.86,51.4,0
"2019-04-22 07:01:24+00",5.6,6.6,,53.6,33,246,-40,1015.72,51.4,0
"2019-04-22 07:06:24+00",3.8,3.8,,53.6,64,141,-22,1015.82,51.5,0
"2019-04-22 07:11:24+00",3.7,4.7,,53.7,29,141,-19,1015.8,51.5,0
"2019-04-22 07:16:24+00",3.6,4.6,,53.8,79,128,-6,1015.92,51.5,0
"2019-04-22 07:21:24+00",4.1,4.1,,53.8,58,145,-19,1015.91,51.7,0
"2019-04-22 07:26:24+00",5.4,6.4,,53.7,67,186,-29,1015.84,51.8,0
"2019-04-22 07:31:24+00",5.6,5.6,,53.9,92,188,-30,1015.82,51.8,0
"2019-04-22 07:36:24+00",6.8,6.8,,54.1,158,195,-53,1015.82,51.6,0
"2019-04-22 07:41:24+00",7.5,7.5,,54.2,185,179,-64,1015.75,51.6,0
"2019-04-22 07:46:24+00",6.0,7.0,,54.1,173,132,-47,1015.87,51.7,0
"2019-04-22 07:51:24+00",6.6,7.6,,54.2,138,244,2,1015.92,51.9,0
"2019-04-22 07:56:24+00",6.6,7.6,,54.4,67,262,3,1015.89,52.1,0
"2019-04-22 08:01:24+00",7.9,8.9,,54.4,81,315,-59,1015.84,52.2,0
"2019-04-22 08:06:24+00",6.4,7.4,,54.2,181,180,-51,1015.74,52.3,0
"2019-04-22 08:11:24+00",7.8,8.8,,54.3,146,269,-68,1015.69,52.4,0
"2019-04-22 08:16:24+00",6.0,7.0,,54.2,145,182,-51,1015.78,52.5,0
"2019-04-22 08:21:24+00",5.2,5.2,,54.3,137,146,-39,1015.86,52.5,0
"2019-04-22 08:26:24+00",4.9,4.9,,54.4,130,131,-38,1015.94,52.6,0
"2019-04-22 08:31:24+00",7.3,8.3,,53.8,333,-70,-53,1016.02,52.5,0
"2019-04-22 08:36:24+00",7.7,8.7,,53.1,346,-2,-36,1015.88,52.3,0
"2019-04-22 08:41:24+00",7.0,8.0,,52.9,313,15,-26,1015.93,52.2,0
"2019-04-22 08:46:24+00",5.7,6.7,,52.7,243,17,-25,1015.84,52,0
"2019-04-22 08:51:24+00",3.9,3.9,,52.7,149,47,-21,1015.84,51.9,0
"2019-04-22 08:56:24+00",5.6,6.6,,52.7,235,54,-29,1015.82,51.7,0
"2019-04-22 09:01:24+00",5.0,5.0,,53,213,56,-28,1015.7,51.5,0
"2019-04-22 09:06:24+00",4.5,4.5,,53.2,151,82,-25,1015.74,51.3,0
"2019-04-22 09:11:24+00",4.2,5.2,,53.2,111,93,-32,1015.63,51.2,0
"2019-04-22 09:16:24+00",4.4,4.4,,53.3,107,99,-38,1015.59,51.2,0
"2019-04-22 09:21:24+00",5.0,6.0,,53.5,111,137,-35,1015.51,51.2,0
"2019-04-22 09:26:24+00",3.9,3.9,,53.6,60,119,-33,1015.56,51.3,0
"2019-04-22 09:31:24+00",4.6,5.6,,53.6,115,112,-37,1015.62,51.4,0
"2019-04-22 09:36:24+00",7.5,7.5,,53.6,257,179,-44,1015.8,51.4,0
"2019-04-22 09:41:24+00",6.6,6.6,,53.6,230,164,15,1015.68,51.4,0
"2019-04-22 09:46:24+00",4.4,4.4,,53.6,128,120,-1,1015.77,51.5,0
"2019-04-22 09:51:24+00",3.5,3.5,,53.6,95,88,4,1015.81,51.5,0
"2019-04-22 09:56:24+00",4.1,5.1,,53.6,167,60,7,1016,51.5,0
"2019-04-22 10:01:24+00",5.0,6.0,,53.7,196,87,10,1016.07,51.6,0
"2019-04-22 10:06:24+00",5.1,6.1,,53.7,183,112,12,1016.04,51.7,0
"2019-04-22 10:11:24+00",6.6,7.6,,53.8,187,185,5,1015.98,51.9,0
"2019-04-22 10:16:24+00",7.2,8.2,,54,216,199,9,1016.21,52.1,0
"2019-04-22 10:21:24+00",6.3,6.3,,54,231,141,18,1016.39,52.3,0
"2019-04-22 10:26:24+00",7.2,8.2,,53.8,297,121,17,1016.38,52.4,0
"2019-04-22 10:31:24+00",7.9,8.9,,53.8,308,151,15,1016.54,52.4,0
"2019-04-22 10:36:24+00",7.1,7.1,,53.8,272,134,13,1016.67,52.5,0
"2019-04-22 10:41:24+00",6.2,7.2,,53.8,214,154,9,1016.69,52.6,0
"2019-04-22 10:46:24+00",6.6,7.6,,53.8,188,196,16,1016.64,52.7,0
"2019-04-22 10:51:24+00",5.6,6.6,,53.7,42,230,7,1016.59,52.8,0
"2019-04-22 10:56:24+00",6.9,7.9,,53.3,-17,293,7,1016.59,52.9,0
"2019-04-22 11:01:24+00",7.5,8.5,,52.9,-47,326,17,1016.58,52.9,0.1
"2019-04-22 11:06:24+00",7.3,9.3,,52.8,-106,299,25,1016.5,52.9,1.2
"2019-04-22 11:11:24+00",8.7,9.7,,52,-110,371,23,1016.59,52.6,6.5
"2019-04-22 11:16:24+00",8.4,9.4,,51.7,-126,338,20,1016.44,52.2,12
"2019-04-22 11:21:24+00",6.7,7.7,,51.6,-96,267,19,1016.33,52.1,16.2
"2019-04-22 11:26:24+00",7.9,8.9,,51.8,-62,333,16,1016.4,52.1,24.4
"2019-04-22 11:31:24+00",7.2,8.2,,52.1,-40,296,18,1016.45,52.3,29.1
"2019-04-22 11:36:24+00",10.1,11.1,,52.2,-50,442,11,1016.69,52.5,33.7
"2019-04-22 11:41:24+00",11.3,12.3,,51.8,-76,485,5,1016.69,52.5,34.3
"2019-04-22 11:46:24+00",9.2,11.2,,51.7,-80,392,10,1016.68,52.4,37.7
"2019-04-22 11:51:24+00",11.8,12.8,,51.7,-91,502,6,1016.71,52.4,38.4
"2019-04-22 11:56:24+00",10.7,13.7,,51.7,-5,469,6,1016.72,52.5,40
"2019-04-22 12:01:24+00",8.6,10.6,,51.8,-9,366,22,1016.83,52.5,34.5
"2019-04-22 12:06:24+00",9.8,10.8,,51.8,-86,415,33,1016.9,52.6,31.2
"2019-04-22 12:11:24+00",9.9,10.9,,51.9,-53,423,14,1016.86,52.7,38.8
"2019-04-22 12:16:24+00",11.5,13.5,,52,-98,495,8,1016.84,52.7,43.2
"2019-04-22 12:21:24+00",9.6,11.6,,52.2,-88,398,22,1016.81,52.9,39.3
"2019-04-22 12:26:24+00",9.4,11.4,,52.3,-100,402,12,1016.72,53,49.3
"2019-04-22 12:31:24+00",10.5,11.5,,52.5,-118,441,16,1016.65,53.1,59.9
"2019-04-22 12:36:24+00",9.3,10.3,,52.8,-137,372,20,1016.56,53.3,63.8
"2019-04-22 12:41:24+00",10.1,12.1,,53,-148,412,19,1016.46,53.5,70.6
"2019-04-22 12:46:24+00",8.3,10.3,,53.2,-158,323,26,1016.4,53.7,75.6
"2019-04-22 12:51:24+00",11.0,13.0,,53.3,-188,449,15,1016.34,54,79.2
"2019-04-22 12:56:24+00",9.3,10.3,,53.6,-196,362,29,1016.32,54.1,80.6
"2019-04-22 13:01:24+00",10.0,12.0,,53.8,-157,406,30,1016.29,54.4,87.2
"2019-04-22 13:06:24+00",10.4,12.4,,54.1,-210,405,29,1016.28,54.7,92.9
"2019-04-22 13:11:24+00",12.5,14.5,,54.2,-160,525,20,1016.3,54.9,100.5
"2019-04-22 13:16:24+00",8.6,9.6,,54.4,-115,350,42,1016.23,55.1,105.7
"2019-04-22 13:21:24+00",10.8,11.8,,54.6,-114,458,14,1016.17,55.4,107
"2019-04-22 13:26:24+00",12.9,14.9,,54.6,-221,521,19,1016.09,55.6,115.8
"2019-04-22 13:31:24+00",11.6,13.6,,54.9,-157,477,27,1016.04,55.8,130.3
"2019-04-22 13:36:24+00",10.6,12.6,,55.3,-159,437,33,1015.99,56.1,148
"2019-04-22 13:41:24+00",14.0,15.0,,55.5,-194,576,18,1015.99,56.5,152.7
"2019-04-22 13:46:24+00",12.2,13.2,,55.9,-107,515,36,1015.96,56.8,142.4
"2019-04-22 13:51:24+00",12.4,15.4,,56.4,-215,501,29,1015.95,57.3,136.6
"2019-04-22 13:56:24+00",11.5,13.5,,56.8,-170,475,17,1015.93,57.7,123.7
"2019-04-22 14:01:24+00",12.1,14.1,,57.2,-60,521,15,1015.95,58,138.2
"2019-04-22 14:06:24+00",11.0,12.0,,57.5,-101,470,16,1015.92,58.5,136.2
"2019-04-22 14:11:24+00",10.5,13.5,,58.2,-83,455,26,1015.84,59.1,145.1
"2019-04-22 14:16:24+00",13.5,15.5,,58.7,-7,593,10,1015.87,59.9,216.6
"2019-04-22 14:21:24+00",14.0,16.0,,59,-41,610,6,1015.83,60.7,207.6
"2019-04-22 14:26:24+00",12.2,16.2,,59.5,33,528,16,1015.75,61.3,247
"2019-04-22 14:31:24+00",14.2,15.2,,59.8,74,608,29,1015.64,61.8,237.9
"2019-04-22 14:36:24+00",13.7,15.7,,60.1,59,581,-1,1015.62,62.3,289.7
"2019-04-22 14:41:24+00",11.2,12.2,,60.3,66,479,3,1015.68,63,470.5
"2019-04-22 14:46:24+00",11.7,14.7,,61.2,141,469,27,1015.55,64.3,514.8
"2019-04-22 14:51:24+00",15.2,19.2,,61.1,82,648,8,1015.61,64.9,508.8
"2019-04-22 14:56:24+00",11.3,15.3,,61.3,178,439,8,1015.63,65.2,523.3
"2019-04-22 15:01:24+00",11.3,16.3,,61.8,78,476,41,1015.6,65.5,301.2
"2019-04-22 15:06:24+00",10.1,15.1,,62.1,145,394,-12,1015.7,65.5,420.5
"2019-04-22 15:11:24+00",9.3,16.3,,62.5,163,339,66,1015.7,65.8,344.9
"2019-04-22 15:16:24+00",11.8,13.8,,62,246,442,4,1015.7,65.2,263.9
"2019-04-22 15:21:24+00",11.5,13.5,,62.1,285,389,20,1015.6,64.9,374.7
"2019-04-22 15:26:24+00",12.7,14.7,,62.3,280,444,4,1015.54,65.1,272.9
"2019-04-22 15:31:24+00",11.8,12.8,,61.8,311,386,2,1015.54,64.2,130.2
"2019-04-22 15:36:24+00",9.0,13.0,,61.9,182,328,31,1015.57,63.8,109.3
"2019-04-22 15:41:24+00",8.4,9.4,,62.3,125,330,31,1015.75,63.9,54
"2019-04-22 15:46:24+00",9.2,10.2,,62.1,-177,362,27,1015.67,63.6,78.6
"2019-04-22 15:51:24+00",12.4,14.4,,62.3,65,532,7,1015.63,63.6,107.8
"2019-04-22 15:56:24+00",13.7,15.7,,62.3,-60,601,9,1015.51,63.7,50
"2019-04-22 16:01:24+00",12.3,14.3,,61.8,489,217,51,1015.52,63.1,10.4
"2019-04-22 16:06:24+00",8.5,9.5,,60.5,269,235,12,1015.6,62.1,4.3
"2019-04-22 16:11:24+00",9.9,10.9,,59.9,418,104,32,1015.62,61.2,5.4
"2019-04-22 16:16:24+00",5.5,6.5,,58.4,225,58,31,1015.54,60.6,15.8
"2019-04-22 16:21:24+00",6.3,7.3,,58,270,24,29,1015.53,60,0.3
"2019-04-22 16:26:24+00",7.7,8.7,,57.4,343,4,21,1015.58,59.4,0
"2019-04-22 16:31:24+00",9.3,10.3,,57.4,403,83,32,1015.56,58.9,0
"2019-04-22 16:36:24+00",9.3,10.3,,57.9,403,124,23,1015.52,58.6,4.5
"2019-04-22 16:41:24+00",8.9,9.9,,57.7,397,9,18,1015.53,58.5,0.1
"2019-04-22 16:46:24+00",10.2,11.2,,57.5,452,44,18,1015.44,58.4,0.6
"2019-04-22 16:51:24+00",7.1,8.1,,57.2,292,117,17,1015.35,57.9,14.1
"2019-04-22 16:56:24+00",8.9,9.9,,57.1,314,229,10,1015.41,57.3,30.1
"2019-04-22 17:01:24+00",9.1,10.1,,57.2,304,242,5,1015.4,57,1.7
"2019-04-22 17:06:24+00",8.3,9.3,,57.5,237,245,8,1015.4,57,4.2
"2019-04-22 17:11:24+00",7.8,9.8,,57.6,256,209,17,1015.27,57.1,5.3
"2019-04-22 17:16:24+00",12.6,15.6,,57.3,369,384,4,1015.34,57.1,18.8
"2019-04-22 17:21:24+00",10.9,13.9,,57.1,282,365,8,1015.36,57,26.1
"2019-04-22 17:26:24+00",12.8,13.8,,57.2,321,435,-4,1015.36,57,40.6
"2019-04-22 17:31:24+00",11.7,14.7,,57.7,155,467,-2,1015.29,57.2,50.1
"2019-04-22 17:36:24+00",10.3,11.3,,58.1,65,433,3,1015.18,57.5,82
"2019-04-22 17:41:24+00",9.0,10.0,,58.4,-9,384,20,1015.13,57.9,85.1
"2019-04-22 17:46:24+00",13.2,16.2,,58.9,-70,568,24,1015.13,58.3,92.2
"2019-04-22 17:51:24+00",11.8,12.8,,59,-67,508,10,1015.19,58.5,77.9
"2019-04-22 17:56:24+00",14.3,16.3,,59,-111,614,18,1015.07,58.6,113.7
"2019-04-22 18:01:24+00",12.5,13.5,,59,-60,540,15,1015.01,58.7,130.9
"2019-04-22 18:06:24+00",12.0,14.0,,59.1,-146,501,14,1014.98,59.1,124.6
"2019-04-22 18:11:24+00",12.3,15.3,,59.1,-92,522,42,1015.01,59.1,112.1
"2019-04-22 18:16:24+00",13.6,15.6,,59.2,-176,563,32,1014.99,59.1,122.5
"2019-04-22 18:21:24+00",12.9,14.9,,59.5,-100,554,23,1015.07,59.3,105.3
"2019-04-22 18:26:24+00",11.0,13.0,,59.8,-81,471,35,1015,59.6,110.7
"2019-04-22 18:31:24+00",12.9,15.9,,59.8,-170,528,31,1014.98,59.7,61.8
"2019-04-22 18:36:24+00",14.5,16.5,,59.8,-166,592,2,1015,59.3,26.4
"2019-04-22 18:41:24+00",17.7,20.7,,59.6,-453,790,-11,1014.99,58.8,61.4
"2019-04-22 18:46:24+00",17.3,20.3,,59.3,-481,980,-119,1015.11,58.5,55.9
"2019-04-22 18:51:24+00",17.1,20.1,,59,-305,713,25,1015.17,58.3,26.3
"2019-04-22 18:56:24+00",14.1,16.1,,58.8,-239,552,38,1015.17,58.1,16.5
"2019-04-22 19:01:24+00",14.0,16.0,,58.6,-221,561,42,1015.14,58,37.1
"2019-04-22 19:06:24+00",13.5,15.5,,58.5,-262,515,42,1015.06,58,39.6
"2019-04-22 19:11:24+00",12.8,14.8,,58.3,-190,511,28,1014.98,57.9,15
"2019-04-22 19:16:24+00",12.8,13.8,,58.3,-174,521,16,1014.98,57.8,20.6
"2019-04-22 19:21:24+00",12.5,14.5,,58.3,-243,490,36,1014.86,57.8,31.9
"2019-04-22 19:26:24+00",12.6,13.6,,58.4,-189,509,27,1014.85,58,64
"2019-04-22 19:31:24+00",13.2,14.2,,58.4,-95,564,12,1014.72,58.1,89.8
"2019-04-22 19:36:24+00",11.8,12.8,,58.4,-133,488,16,1014.7,58.3,113.5
"2019-04-22 19:41:24+00",13.5,16.5,,58.4,-282,514,27,1014.61,58.3,99.2
"2019-04-22 19:46:24+00",10.9,12.9,,58.6,-173,428,33,1014.56,58.5,100.6
"2019-04-22 19:51:24+00",11.4,13.4,,58.6,-180,457,21,1014.51,58.7,112.7
"2019-04-22 19:56:24+00",12.8,13.8,,58.7,-205,516,18,1014.38,58.8,137
"2019-04-22 20:01:24+00",11.2,14.2,,58.9,-148,460,24,1014.32,59.1,157.1
"2019-04-22 20:06:24+00",13.2,15.2,,59.1,-238,515,30,1014.28,59.2,147.9
"2019-04-22 20:11:24+00",13.3,15.3,,59.1,-244,526,41,1014.21,59.1,108.3
"2019-04-22 20:16:24+00",14.2,16.2,,59.3,-337,527,59,1014.22,59.2,121.6
"2019-04-22 20:21:24+00",14.0,15.0,,59.7,-258,559,29,1014.22,59.6,178.9
"2019-04-22 20:26:24+00",17.6,19.6,,60.1,16363,2584,184,1014.21,60.2,-0.1
"2019-04-22 20:31:24+00",16.6,19.6,,60.3,-315,652,30,1014.13,60.7,181.9
"2019-04-22 20:36:24+00",15.5,19.5,,60.4,-350,608,36,1014.2,60.8,136.6
"2019-04-22 20:41:24+00",14.7,17.7,,60.4,-224,618,46,1014.21,60.7,84.6
"2019-04-22 20:46:24+00",16.0,20.0,,60.4,-295,642,30,1014.22,60.5,54.8
"2019-04-22 20:51:24+00",14.9,16.9,,60.4,-197,622,44,1014.24,60.3,38.2
"2019-04-22 20:56:24+00",13.8,15.8,,60.4,-263,544,38,1014.23,60.3,47.3
"2019-04-22 21:01:24+00",15.3,16.3,,60.5,-282,614,36,1014.17,60.3,53.6
"2019-04-22 21:06:24+00",14.4,16.4,,60.5,-290,566,35,1014.2,60.4,46.8
"2019-04-22 21:11:24+00",12.2,13.2,,60.6,-278,456,35,1014.19,60.4,29.4
"2019-04-22 21:16:24+00",13.1,15.1,,60.6,-325,485,52,1014.12,60.4,38.1
"2019-04-22 21:21:24+00",11.0,14.0,,60.7,-251,415,36,1014.22,60.5,39.7
"2019-04-22 21:26:24+00",11.1,14.1,,60.9,-264,412,47,1014.29,60.7,57.7
"2019-04-22 21:31:24+00",11.7,14.7,,61.2,-308,418,44,1014.23,61,60.4
"2019-04-22 21:36:24+00",12.8,14.8,,61.4,-304,476,31,1014.29,61.4,68
"2019-04-22 21:41:24+00",10.5,12.5,,61.7,-301,362,53,1014.22,61.7,71.6
"2019-04-22 21:46:24+00",14.7,16.7,,62.1,-405,517,41,1014.22,62,55.6
"2019-04-22 21:51:24+00",15.3,17.3,,62.3,-341,592,43,1014.16,62.1,42.1
"2019-04-22 21:56:24+00",16.1,18.1,,62.6,-439,569,47,1014.12,62.2,27.8
"2019-04-22 22:01:24+00",14.0,16.0,,62.6,-329,530,59,1014.17,62.2,33.7
"2019-04-22 22:06:24+00",16.7,19.7,,62.6,-368,635,26,1014.2,62.3,37.6
"2019-04-22 22:11:24+00",16.9,18.9,,62.8,-396,635,30,1014.19,62.3,25.6
"2019-04-22 22:16:24+00",13.9,16.9,,62.6,-294,545,41,1014.28,62.2,23.5
"2019-04-22 22:21:24+00",17.0,20.0,,62.7,-314,693,41,1014.28,62.2,29.8
"2019-04-22 22:26:24+00",15.7,17.7,,62.7,-333,618,29,1014.28,62.3,71.7
"2019-04-22 22:31:24+00",14.3,16.3,,63.2,-365,529,45,1014.28,63,104.5
"2019-04-22 22:36:24+00",12.0,16.0,,63.2,-227,473,40,1014.24,63.6,75.3
"2019-04-22 22:41:24+00",18.3,21.3,,62.8,-509,638,46,1014.23,63.2,51.6
"2019-04-22 22:46:24+00",15.9,17.9,,62.4,-356,606,37,1014.39,62.6,16.9
"2019-04-22 22:51:24+00",17.0,18.0,,62.2,-365,663,38,1014.45,62.2,25.6
"2019-04-22 22:56:24+00",13.9,16.9,,62.1,-320,517,24,1014.45,62,26.1
"2019-04-22 23:01:24+00",11.5,12.5,,62.1,-254,436,34,1014.41,62,5.2
"2019-04-22 23:06:24+00",14.5,15.5,,62,-346,534,34,1014.51,61.8,0.8
"2019-04-22 23:11:24+00",12.3,13.3,,61.8,-312,457,36,1014.59,61.5,0
"2019-04-22 23:16:24+00",11.3,14.3,,61.7,-300,394,29,1014.6,61.3,0
"2019-04-22 23:21:24+00",13.2,15.2,,61.5,-328,483,54,1014.63,61,0
"2019-04-22 23:26:24+00",14.4,15.4,,61.5,-345,533,26,1014.68,60.8,0
"2019-04-22 23:31:24+00",12.5,13.5,,61.3,-311,466,36,1014.76,60.6,0
"2019-04-22 23:36:24+00",9.8,10.8,,61.1,-258,348,26,1014.8,60.5,0
"2019-04-22 23:41:24+00",7.6,8.6,,60.9,-220,254,21,1014.88,60.3,0
"2019-04-22 23:46:24+00",6.9,7.9,,60.8,-221,213,18,1014.88,60.1,0
"2019-04-22 23:51:24+00",8.9,9.9,,60.9,-295,255,30,1014.86,60.1,0
"2019-04-22 23:56:24+00",7.9,8.9,,60.7,-257,236,29,1015.02,60,0
